Hourly Weather Dziaduszyn

Today, 12 May, Wednesday

Time Temperature Precipitation Wind Pressure Humidity
00:00 +13°C° 0 mm 6 mps 747 mmHg 71%
01:00 +13°C° 0 mm 5 mps 747 mmHg 70%
02:00 +12°C° 0 mm 5 mps 747 mmHg 72%
03:00 +12°C° 0 mm 5 mps 747 mmHg 74%
04:00 +10°C° 0 mm 5 mps 747 mmHg 76%
05:00 +13°C° 0 mm 6 mps 747 mmHg 76%
06:00 +14°C° 0 mm 6 mps 747 mmHg 76%
07:00 +16°C° 0 mm 7 mps 747 mmHg 76%
08:00 +17°C° 0 mm 7 mps 747 mmHg 73%
09:00 +20°C° 0 mm 7 mps 747 mmHg 69%
10:00 +21°C° 0 mm 7 mps 747 mmHg 65%
11:00 +22°C° 0 mm 7 mps 747 mmHg 64%
12:00 +22°C° 0 mm 7 mps 747 mmHg 63%
13:00 +23°C° 0 mm 7 mps 747 mmHg 62%
14:00 +22°C° 0 mm 7 mps 746 mmHg 64%
15:00 +21°C° 0 mm 7 mps 746 mmHg 66%
16:00 +21°C° 0 mm 6 mps 746 mmHg 68%
17:00 +19°C° 0 mm 6 mps 746 mmHg 69%
18:00 +16°C° 0 mm 6 mps 746 mmHg 69%
19:00 +15°C° 0 mm 5 mps 746 mmHg 70%
20:00 +13°C° 0 mm 5 mps 746 mmHg 73%
21:00 +12°C° 0 mm 4 mps 746 mmHg 75%
22:00 +11°C° 0 mm 4 mps 746 mmHg 78%
23:00 +10°C° 0 mm 3 mps 745 mmHg 81%

Tomorrow, 13 May, Thursday

Time Temperature Precipitation Wind Pressure Humidity
00:00 +9°C° 0 mm 3 mps 745 mmHg 84%
01:00 +8°C° 0 mm 3 mps 745 mmHg 87%
02:00 +8°C° 0 mm 3 mps 744 mmHg 88%
03:00 +8°C° 0 mm 2 mps 744 mmHg 88%
04:00 +7°C° 0 mm 2 mps 743 mmHg 89%
05:00 +9°C° 0 mm 2 mps 743 mmHg 83%
06:00 +12°C° 0 mm 2 mps 743 mmHg 77%
07:00 +14°C° 0 mm 2 mps 742 mmHg 71%
08:00 +14°C° 0.1 mm 2 mps 742 mmHg 74%
09:00 +13°C° 0.1 mm 2 mps 742 mmHg 76%
10:00 +13°C° 0.1 mm 2 mps 741 mmHg 79%
11:00 +13°C° 0.3 mm 2 mps 741 mmHg 83%
12:00 +12°C° 0.3 mm 2 mps 741 mmHg 87%
13:00 +11°C° 0.3 mm 1 mps 740 mmHg 91%
14:00 +12°C° 0 mm 1 mps 740 mmHg 90%
15:00 +12°C° 0 mm 1 mps 740 mmHg 88%
16:00 +12°C° 0 mm 1 mps 739 mmHg 86%
17:00 +12°C° 0.1 mm 2 mps 739 mmHg 89%
18:00 +10°C° 0.1 mm 2 mps 739 mmHg 91%
19:00 +10°C° 0.1 mm 2 mps 739 mmHg 94%
20:00 +10°C° 0 mm 2 mps 738 mmHg 94%
21:00 +9°C° 0 mm 3 mps 738 mmHg 95%
22:00 +9°C° 0 mm 3 mps 738 mmHg 95%
23:00 +9°C° 0.1 mm 3 mps 738 mmHg 96%

Day after tomorrow, 14 May, Friday

Time Temperature Precipitation Wind Pressure Humidity
00:00 +9°C° 0.1 mm 3 mps 738 mmHg 96%
01:00 +8°C° 0.1 mm 2 mps 738 mmHg 97%
02:00 +9°C° 0 mm 2 mps 738 mmHg 97%
03:00 +9°C° 0 mm 2 mps 738 mmHg 97%
04:00 +10°C° 0 mm 1 mps 738 mmHg 97%
05:00 +10°C° 0 mm 1 mps 738 mmHg 95%
06:00 +10°C° 0 mm 2 mps 738 mmHg 92%
07:00 +12°C° 0 mm 2 mps 738 mmHg 89%
08:00 +13°C° 0 mm 2 mps 738 mmHg 85%
09:00 +14°C° 0 mm 2 mps 738 mmHg 81%
10:00 +15°C° 0 mm 2 mps 739 mmHg 76%
11:00 +16°C° 0.1 mm 2 mps 739 mmHg 71%
12:00 +17°C° 0.1 mm 3 mps 739 mmHg 67%
13:00 +18°C° 0.1 mm 3 mps 739 mmHg 62%
14:00 +18°C° 0.3 mm 2 mps 739 mmHg 65%
15:00 +18°C° 0.3 mm 2 mps 739 mmHg 68%
16:00 +17°C° 0.3 mm 2 mps 739 mmHg 72%
17:00 +16°C° 0.2 mm 2 mps 739 mmHg 77%
18:00 +15°C° 0.2 mm 2 mps 740 mmHg 82%
19:00 +13°C° 0.2 mm 1 mps 740 mmHg 87%
20:00 +12°C° 0 mm 2 mps 740 mmHg 90%
21:00 +12°C° 0 mm 2 mps 740 mmHg 92%
22:00 +10°C° 0 mm 2 mps 741 mmHg 95%
23:00 +9°C° 0 mm 2 mps 741 mmHg 95%

15 May, Saturday

Time Temperature Precipitation Wind Pressure Humidity
00:00 +9°C° 0 mm 2 mps 741 mmHg 95%
01:00 +8°C° 0 mm 2 mps 741 mmHg 96%
02:00 +8°C° 0 mm 2 mps 742 mmHg 95%
03:00 +10°C° 0 mm 1 mps 742 mmHg 95%
04:00 +10°C° 0 mm 1 mps 742 mmHg 94%
05:00 +10°C° 0 mm 1 mps 742 mmHg 93%
06:00 +10°C° 0 mm 1 mps 742 mmHg 91%
07:00 +10°C° 0 mm 2 mps 743 mmHg 89%
08:00 +12°C° 0 mm 2 mps 743 mmHg 87%
09:00 +12°C° 0 mm 2 mps 743 mmHg 84%
10:00 +13°C° 0 mm 2 mps 743 mmHg 81%
11:00 +14°C° 0.1 mm 2 mps 744 mmHg 78%
12:00 +14°C° 0.1 mm 2 mps 744 mmHg 75%
13:00 +15°C° 0.1 mm 2 mps 744 mmHg 72%
14:00 +15°C° 0.1 mm 2 mps 744 mmHg 74%
15:00 +15°C° 0.1 mm 2 mps 744 mmHg 76%
16:00 +15°C° 0.1 mm 2 mps 744 mmHg 78%
17:00 +14°C° 0 mm 2 mps 744 mmHg 82%
18:00 +13°C° 0 mm 2 mps 744 mmHg 85%
19:00 +12°C° 0 mm 2 mps 744 mmHg 88%
20:00 +12°C° 0 mm 1 mps 744 mmHg 89%
21:00 +11°C° 0 mm 1 mps 744 mmHg 89%
22:00 +10°C° 0 mm 1 mps 745 mmHg 89%
23:00 +10°C° 0 mm 1 mps 745 mmHg 89%

16 May, Sunday

Time Temperature Precipitation Wind Pressure Humidity
00:00 +9°C° 0 mm 1 mps 745 mmHg 90%
01:00 +9°C° 0 mm 1 mps 745 mmHg 90%
02:00 +8°C° 0 mm 1 mps 745 mmHg 91%
03:00 +8°C° 0 mm 1 mps 745 mmHg 91%
04:00 +8°C° 0 mm 1 mps 745 mmHg 92%
05:00 +10°C° 0 mm 1 mps 745 mmHg 88%
06:00 +11°C° 0 mm 1 mps 745 mmHg 84%
07:00 +13°C° 0 mm 1 mps 745 mmHg 80%
08:00 +15°C° 0 mm 2 mps 745 mmHg 76%
09:00 +16°C° 0 mm 2 mps 745 mmHg 72%
10:00 +17°C° 0 mm 3 mps 745 mmHg 67%
11:00 +18°C° 0 mm 3 mps 745 mmHg 64%
12:00 +19°C° 0 mm 3 mps 745 mmHg 61%
13:00 +19°C° 0 mm 3 mps 745 mmHg 58%
14:00 +19°C° 0.1 mm 2 mps 744 mmHg 62%
15:00 +19°C° 0.1 mm 2 mps 744 mmHg 66%
16:00 +19°C° 0.1 mm 2 mps 744 mmHg 70%
17:00 +17°C° 0.4 mm 2 mps 744 mmHg 75%
18:00 +16°C° 0.4 mm 2 mps 744 mmHg 81%
19:00 +15°C° 0.4 mm 2 mps 744 mmHg 86%
20:00 +14°C° 0.9 mm 2 mps 744 mmHg 88%
21:00 +14°C° 0.9 mm 2 mps 744 mmHg 91%
22:00 +13°C° 0.9 mm 1 mps 744 mmHg 93%
23:00 +13°C° 1 mm 1 mps 744 mmHg 95%

17 May, Monday

Time Temperature Precipitation Wind Pressure Humidity
00:00 +13°C° 1 mm 1 mps 743 mmHg 96%
01:00 +13°C° 1 mm 1 mps 743 mmHg 98%
02:00 +13°C° 0.3 mm 2 mps 743 mmHg 97%
03:00 +13°C° 0.3 mm 2 mps 742 mmHg 97%
04:00 +13°C° 0.3 mm 2 mps 742 mmHg 97%
05:00 +12°C° 1.1 mm 3 mps 742 mmHg 97%
06:00 +12°C° 1.1 mm 3 mps 742 mmHg 97%
07:00 +12°C° 1.1 mm 3 mps 742 mmHg 97%
08:00 +12°C° 1.4 mm 3 mps 742 mmHg 97%
09:00 +12°C° 1.4 mm 3 mps 742 mmHg 97%
10:00 +12°C° 1.4 mm 4 mps 742 mmHg 97%
11:00 +13°C° 0.4 mm 3 mps 742 mmHg 93%
12:00 +14°C° 0.4 mm 3 mps 742 mmHg 88%
13:00 +15°C° 0.4 mm 2 mps 742 mmHg 84%
14:00 +16°C° 0.4 mm 2 mps 742 mmHg 81%
15:00 +17°C° 0.4 mm 2 mps 742 mmHg 78%
16:00 +17°C° 0.4 mm 2 mps 742 mmHg 76%
17:00 +16°C° 0.1 mm 1 mps 742 mmHg 79%
18:00 +15°C° 0.1 mm 1 mps 742 mmHg 82%
19:00 +14°C° 0.1 mm 1 mps 742 mmHg 85%
20:00 +13°C° 0 mm 1 mps 742 mmHg 87%
21:00 +12°C° 0 mm 2 mps 743 mmHg 89%
22:00 +10°C° 0 mm 2 mps 743 mmHg 91%
23:00 +9°C° 0 mm 2 mps 743 mmHg 91%
Show more

We Need Your Consent

Meteoprog and our Service Providers may store and access personal data such as cookies, device identifiers or other similar technologies on your device and process such data to personalise content and ads, as well as provide social media features and to analyse the traffic.

  • Store and/or access information on your device

    Cookies, device identifiers or other information can be stored or accessed on your device for the purposes indicated above.

  • Personalised ads and content, ad and content measurement, audience insights, and products development

    Ads and content can be personalised based on a profile. More data can be added to better personalise ads and content. Ad and content performance can be measured. Insights about the audience who saw the ads and content can be derived. Such data can be used to develop or improve user’s experience, systems and software.

By clicking ‘I Agree’ you will allow the use of indicated cookies, device identifiers, web beacons or other similar technologies. Your settings can be changed in the browser on your device.

For certain purposes, legitimate interests may be relied on, rather than consent. You can read more about this in our Privacy and Cookie Policy.